CW3546 Weather Reports


time (UTC)temp
C
wind
direction
speed
KPH
gust
KPH
rain 1hr
cm
rain 24hr
cm
rain mn
cm
humidity
%
barometer
mb
20260503055019 10 302 1.6 11.3 0.00 0.08 0.03 95 1008.0
20260503054523 10 312 3.2 8.0 0.00 0.08 0.03 95 1008.0
20260503054020 10 296 3.2 12.9 0.00 0.08 0.03 95 1007.9
20260503053519 10 281 3.2 12.9 0.00 0.08 0.03 95 1007.8
20260503053031 10 331 3.2 11.3 0.00 0.08 0.03 95 1007.8
20260503052526 10 286 3.2 11.3 0.00 0.08 0.03 95 1007.8
20260503052017 10 307 3.2 12.9 0.00 0.08 0.03 95 1007.8
20260503051517 10 309 3.2 12.9 0.00 0.08 0.03 95 1007.7
20260503051018 10 310 4.8 14.5 0.00 0.08 0.03 95 1007.7
20260503050516 10 309 3.2 12.9 0.00 0.08 0.03 95 1007.7
20260503050116 10 293 3.2 9.7 0.00 0.08 0.03 95 1007.6
20260503045515 10 309 1.6 11.3 0.00 0.08 0.03 95 1007.7
20260503045015 10 315 4.8 11.3 0.00 0.08 0.03 95 1007.7
20260503044527 10 315 4.8 12.9 0.00 0.08 0.03 95 1007.7
20260503044013 10 304 3.2 14.5 0.00 0.08 0.03 95 1007.7
20260503043513 10 338 6.4 14.5 0.00 0.08 0.03 95 1007.8
20260503043013 10 360 3.2 14.5 0.00 0.08 0.03 95 1007.8
20260503042512 10 321 3.2 11.3 0.00 0.08 0.03 95 1007.8
20260503042011 10 308 3.2 11.3 0.00 0.08 0.03 95 1007.9
20260503041511 10 307 4.8 12.9 0.00 0.08 0.03 95 1007.9
20260503041010 10 295 3.2 12.9 0.00 0.08 0.03 95 1008.0
20260503040513 10 298 4.8 12.9 0.00 0.08 0.03 95 1008.0
20260503040014 10 286 8.0 12.9 0.00 0.08 0.03 95 1008.0
20260503035508 10 300 3.2 8.0 0.00 0.08 0.03 95 1008.1
20260503035010 10 296 3.2 12.9 0.00 0.08 0.03 95 1008.1
20260503034511 10 324 6.4 12.9 0.00 0.08 0.03 95 1008.2
20260503034007 11 291 3.2 16.1 0.00 0.08 0.03 95 1008.2
20260503033508 10 321 4.8 16.1 0.00 0.08 0.03 95 1008.2
20260503033011 10 316 3.2 12.9 0.00 0.08 0.03 95 1008.3
20260503032506 11 320 3.2 12.9 0.00 0.08 0.03 95 1008.3
20260503032010 11 312 4.8 12.9 0.00 0.08 0.03 95 1008.2
20260503031506 11 314 4.8 12.9 0.00 0.08 0.03 95 1008.2
20260503031004 11 310 4.8 9.7 0.00 0.08 0.03 95 1008.3
20260503030503 11 306 1.6 8.0 0.00 0.08 0.03 95 1008.3
20260503030004 11 306 1.6 8.0 0.00 0.08 0.03 95 1008.3
20260503025505 11 298 3.2 8.0 0.00 0.08 0.03 95 1008.3
20260503025003 11 318 4.8 11.3 0.00 0.08 0.03 95 1008.4
20260503024503 11 297 4.8 11.3 0.00 0.08 0.03 95 1008.4
20260503024003 11 313 3.2 14.5 0.00 0.08 0.03 95 1008.4
20260503023501 11 297 4.8 14.5 0.00 0.08 0.03 94 1008.5
20260503023001 11 300 1.6 12.9 0.00 0.08 0.03 95 1008.5
20260503022600 11 323 3.2 12.9 0.00 0.08 0.03 94 1008.6
20260503022059 11 280 3.2 16.1 0.00 0.08 0.03 94 1008.6
20260503021559 11 316 4.8 16.1 0.00 0.08 0.03 94 1008.6
20260503021057 11 304 4.8 14.5 0.00 0.08 0.03 94 1008.7
20260503020556 11 298 4.8 14.5 0.00 0.08 0.03 94 1008.8
20260503020106 11 313 3.2 9.7 0.00 0.08 0.03 94 1008.8
20260503015555 11 313 1.6 8.0 0.00 0.08 0.03 94 1008.9
20260503015054 11 305 3.2 9.7 0.00 0.08 0.03 94 1008.9
20260503014601 11 295 3.2 8.0 0.00 0.08 0.03 94 1008.9
20260503014054 11 323 3.2 8.0 0.03 0.08 0.03 94 1009.0
20260503013553 11 297 1.6 11.3 0.03 0.08 0.03 94 1009.0
20260503013102 11 304 3.2 11.3 0.03 0.08 0.03 94 1009.0
20260503012557 11 312 1.6 9.7 0.03 0.08 0.03 94 1009.1
20260503012052 11 316 0.0 9.7 0.03 0.08 0.03 94 1009.2
20260503011554 11 290 1.6 8.0 0.03 0.08 0.03 94 1009.2
20260503011050 11 287 0.0 9.7 0.03 0.08 0.03 94 1009.3
20260503010550 11 288 1.6 9.7 0.03 0.08 0.03 94 1009.3
20260503010050 11 243 1.6 11.3 0.03 0.08 0.03 94 1009.4
20260503005548 11 305 3.2 11.3 0.03 0.08 0.03 94 1009.4
20260503005047 11 302 3.2 11.3 0.03 0.08 0.03 94 1009.5
20260503004553 11 313 1.6 6.4 0.03 0.08 0.03 94 1009.6
20260503004048 11 309 1.6 6.4 0.00 0.05 0.00 94 1009.7
20260503003646 11 308 0.0 6.4 0.00 0.05 0.00 94 1009.7
20260503003050 11 304 0.0 6.4 0.00 0.05 0.00 94 1009.7
20260503002546 11 300 0.0 6.4 0.00 0.05 0.00 93 1009.8
20260503002044 11 300 0.0 9.7 0.00 0.05 0.00 94 1009.9
20260503001549 11 274 1.6 9.7 0.00 0.05 0.00 94 1010.0
20260503001045 11 307 1.6 8.0 0.00 0.05 0.00 94 1010.0
20260503000541 11 302 1.6 11.3 0.00 0.05 0.00 93 1010.1
20260503000047 11 257 3.2 11.3 0.00 0.05 0.00 93 1010.1
20260502235540 11 289 3.2 12.9 0.00 0.05 0.00 93 1010.2
20260502235039 11 309 4.8 12.9 0.00 0.05 0.00 93 1010.2
20260502234551 11 306 3.2 12.9 0.00 0.05 0.00 93 1010.3
20260502234039 11 313 4.8 11.3 0.00 0.05 0.00 93 1010.4
20260502233536 11 298 1.6 8.0 0.00 0.05 0.00 93 1010.4
20260502233036 11 296 3.2 8.0 0.00 0.05 0.00 93 1010.4
20260502232535 11 286 3.2 8.0 0.00 0.05 0.00 92 1010.5
20260502232035 11 299 3.2 8.0 0.00 0.05 0.00 92 1010.6
20260502231535 11 333 0.0 8.0 0.00 0.05 0.00 92 1010.7
20260502231035 11 302 3.2 8.0 0.00 0.05 0.00 92 1010.6
20260502230535 11 313 1.6 6.4 0.00 0.05 0.00 91 1010.7
20260502230032 11 309 0.0 6.4 0.00 0.05 0.00 91 1010.8
20260502225536 11 328 0.0 3.2 0.00 0.05 0.05 91 1010.8
20260502225033 11 328 0.0 3.2 0.00 0.05 0.05 91 1010.8
20260502224532 11 328 0.0 1.6 0.00 0.05 0.05 90 1010.8
20260502224033 11 328 0.0 3.2 0.00 0.05 0.05 90 1010.8
20260502223531 11 328 0.0 3.2 0.00 0.05 0.05 90 1010.8
20260502223038 11 346 0.0 4.8 0.00 0.05 0.05 90 1010.8
20260502222531 11 346 0.0 4.8 0.00 0.05 0.05 89 1010.8
20260502222030 11 27 0.0 4.8 0.00 0.05 0.05 89 1010.9
20260502221530 11 27 0.0 3.2 0.00 0.05 0.05 89 1010.9
20260502221029 11 60 0.0 1.6 0.00 0.05 0.05 89 1010.9
20260502220529 11 61 0.0 4.8 0.00 0.05 0.05 88 1010.9
20260502220031 11 61 0.0 4.8 0.00 0.05 0.05 88 1010.8
20260502215529 11 69 0.0 4.8 0.00 0.05 0.05 88 1010.9
20260502215028 11 308 0.0 4.8 0.00 0.05 0.05 88 1010.9
20260502214528 11 321 0.0 4.8 0.00 0.05 0.05 88 1010.9
20260502214027 11 321 0.0 4.8 0.00 0.05 0.05 87 1011.0
20260502213528 11 306 0.0 4.8 0.00 0.05 0.05 87 1011.0
20260502213027 12 315 0.0 4.8 0.00 0.05 0.05 87 1011.1
20260502212526 12 289 0.0 6.4 0.00 0.05 0.05 86 1011.3
20260502212026 12 282 0.0 6.4 0.03 0.05 0.05 86 1011.2
20260502211532 12 268 0.0 3.2 0.03 0.05 0.05 86 1011.2
20260502211023 12 265 0.0 1.6 0.03 0.05 0.05 86 1011.4
20260502210523 12 265 0.0 0.0 0.03 0.05 0.05 86 1011.4
20260502210023 12 265 0.0 0.0 0.03 0.05 0.05 86 1011.5
20260502205526 12 265 0.0 0.0 0.03 0.05 0.05 86 1011.4
20260502205022 12 265 0.0 0.0 0.03 0.05 0.05 85 1011.5
20260502204534 12 265 0.0 0.0 0.03 0.05 0.05 85 1011.6
20260502204025 12 265 0.0 1.6 0.03 0.05 0.05 84 1011.7
20260502203521 12 262 0.0 1.6 0.03 0.05 0.05 83 1011.7
20260502203024 12 261 0.0 1.6 0.03 0.05 0.05 82 1011.8
20260502202519 13 261 0.0 0.0 0.03 0.05 0.05 82 1011.9
20260502202020 13 261 0.0 0.0 0.00 0.05 0.05 82 1011.9
20260502201519 13 261 0.0 0.0 0.03 0.05 0.05 83 1011.9
20260502201018 13 261 0.0 0.0 0.03 0.05 0.05 82 1011.9
20260502200518 13 261 0.0 0.0 0.03 0.05 0.05 82 1011.9
20260502200018 13 261 0.0 0.0 0.03 0.05 0.05 82 1012.0
20260502195517 13 261 0.0 0.0 0.03 0.05 0.05 82 1012.0
20260502195017 13 261 0.0 0.0 0.03 0.05 0.05 81 1012.0
20260502194520 13 261 0.0 0.0 0.03 0.05 0.05 81 1012.0
20260502194017 13 261 0.0 1.6 0.03 0.05 0.05 80 1012.0
20260502193518 13 261 0.0 1.6 0.03 0.05 0.05 80 1012.0
20260502193017 14 261 0.0 0.0 0.03 0.05 0.05 81 1012.0
20260502192515 14 261 0.0 0.0 0.03 0.05 0.05 81 1012.1
20260502192016 14 261 0.0 0.0 0.03 0.05 0.05 79 1012.0
20260502191516 14 261 0.0 0.0 0.00 0.05 0.03 78 1012.1
20260502191015 14 261 0.0 0.0 0.00 0.05 0.03 77 1012.1
20260502190515 15 261 0.0 0.0 0.00 0.05 0.03 77 1012.2
20260502190019 15 261 0.0 0.0 0.00 0.05 0.03 77 1012.2
20260502185514 15 261 0.0 0.0 0.00 0.05 0.03 76 1012.2
20260502185014 15 261 0.0 0.0 0.00 0.05 0.03 75 1012.2
20260502184515 15 261 0.0 0.0 0.00 0.05 0.03 73 1012.2
20260502184014 15 261 0.0 0.0 0.00 0.05 0.03 72 1012.2
20260502183515 15 261 0.0 0.0 0.00 0.05 0.03 71 1012.1
20260502183114 15 261 0.0 0.0 0.00 0.05 0.03 69 1012.1
20260502182516 15 261 0.0 0.0 0.00 0.05 0.03 68 1012.1
20260502182013 15 261 0.0 0.0 0.00 0.05 0.03 67 1012.1
20260502181513 15 261 0.0 0.0 0.00 0.05 0.03 65 1012.1
20260502181013 16 261 0.0 0.0 0.00 0.05 0.03 63 1012.1
20260502180512 16 261 0.0 0.0 0.00 0.05 0.03 62 1012.0
20260502170511 16 265 0.0 1.6 0.00 0.08 0.03 53 1012.4
20260502164006 17 265 0.0 3.2 0.00 0.08 0.03 53 1012.6
20260502163506 17 265 0.0 0.0 0.00 0.08 0.03 52 1012.7
20260502163016 17 263 0.0 0.0 0.00 0.08 0.03 52 1012.7
20260502162505 17 263 0.0 0.0 0.00 0.08 0.03 53 1012.7
20260502162006 17 263 0.0 0.0 0.00 0.08 0.03 51 1012.7
20260502161515 17 263 0.0 0.0 0.00 0.08 0.03 50 1012.7
20260502161004 17 263 0.0 1.6 0.00 0.08 0.03 52 1012.8
20260502160503 17 263 0.0 3.2 0.00 0.08 0.03 50 1012.9
20260502152057 17 117 0.0 6.4 0.00 0.08 0.03 48 1013.4
20260502151558 18 117 1.6 6.4 0.00 0.08 0.03 49 1013.5
20260502151059 18 69 0.0 4.8 0.00 0.08 0.03 50 1013.5
20260502150556 18 69 0.0 4.8 0.00 0.08 0.03 49 1013.6
20260502130543 18 157 1.6 8.0 0.00 0.08 0.03 50 1014.8
20260502123538 17 314 3.2 9.7 0.00 0.08 0.03 55 1015.1
20260502123100 16 304 0.0 4.8 0.00 0.08 0.03 59 1015.2
20260502122535 16 42 0.0 3.2 0.00 0.08 0.03 60 1015.2
20260502122038 16 350 0.0 4.8 0.00 0.08 0.03 61 1015.3
20260502121534 16 348 1.6 9.7 0.00 0.08 0.03 59 1015.4
20260502121033 16 293 4.8 8.0 0.00 0.08 0.03 61 1015.5
20260502120531 16 314 1.6 8.0 0.00 0.08 0.03 61 1015.5
20260502115530 16 286 6.4 11.3 0.00 0.08 0.03 62 1015.7
20260502115028 15 186 1.6 11.3 0.00 0.08 0.03 63 1015.8
20260502114526 15 292 1.6 11.3 0.00 0.08 0.03 63 1015.9
20260502114025 15 300 1.6 6.4 0.00 0.08 0.03 63 1016.1
20260502113527 15 294 1.6 8.0 0.00 0.08 0.03 64 1016.1
20260502113029 15 309 3.2 8.0 0.00 0.08 0.03 65 1016.2
20260502112522 15 300 1.6 6.4 0.00 0.08 0.03 65 1016.2
20260502112022 14 306 0.0 6.4 0.00 0.08 0.03 66 1016.2
20260502111522 14 321 0.0 1.6 0.00 0.08 0.03 66 1016.2
20260502111022 14 321 0.0 6.4 0.00 0.08 0.03 67 1016.1
20260502110521 14 321 0.0 6.4 0.00 0.08 0.03 65 1016.2
20260502110022 14 337 0.0 6.4 0.00 0.08 0.03 65 1016.3
20260502105522 14 334 1.6 6.4 0.00 0.08 0.03 65 1016.3
20260502105020 15 312 0.0 4.8 0.00 0.08 0.03 68 1016.3
20260502104521 14 242 0.0 8.0 0.00 0.08 0.03 69 1016.4
20260502104019 14 237 0.0 8.0 0.00 0.08 0.03 69 1016.6
20260502103519 14 299 0.0 3.2 0.00 0.08 0.03 69 1016.6
20260502103019 14 299 1.6 4.8 0.00 0.08 0.03 68 1016.5
20260502102519 14 292 0.0 4.8 0.00 0.08 0.03 67 1016.4
20260502102018 14 286 0.0 4.8 0.00 0.08 0.03 68 1016.3
20260502101517 14 303 0.0 4.8 0.00 0.08 0.03 69 1016.4
20260502101016 14 303 0.0 6.4 0.00 0.08 0.03 69 1016.5
20260502100515 14 303 3.2 6.4 0.00 0.08 0.03 69 1016.6
20260502091511 14 46 0.0 3.2 0.03 0.08 0.03 74 1017.2
20260502091009 13 290 0.0 1.6 0.03 0.08 0.03 76 1017.0
20260502090507 13 290 0.0 0.0 0.03 0.08 0.03 74 1017.0
20260502071052 8 319 0.0 4.8 0.00 0.05 0.00 92 1017.3
20260502070553 8 187 0.0 1.6 0.00 0.05 0.00 93 1017.3
20260502070105 8 187 0.0 1.6 0.00 0.05 0.00 93 1017.3
20260502065549 8 169 0.0 0.0 0.00 0.05 0.00 93 1017.3
20260502065048 8 165 0.0 1.6 0.00 0.05 0.00 93 1017.3
20260502064551 8 162 0.0 1.6 0.00 0.05 0.00 93 1017.3
20260502064047 8 162 0.0 0.0 0.00 0.05 0.00 93 1017.3